Time,TemperatureF,DewpointF,PressureIn,WindDirection,WindDirectionDegrees,WindSpeedMPH,WindSpeedGustMPH,Humidity,HourlyPrecipIn,Conditions,Clouds,dailyrainin,SoftwareType,DateUTC
2013-10-05 00:04:00,51.4,48.9,30.10,ESE,122,0.0,0.0,91,0.00,OVC,OVC,0.00,WeatherDisplay:10.37,2013-10-05 04:04:00,
2013-10-05 00:09:00,51.4,48.9,30.10,ESE,122,0.0,0.0,91,0.00,OVC,OVC,0.00,WeatherDisplay:10.37,2013-10-05 04:09:00,
2013-10-05 00:14:00,51.4,48.9,30.09,ESE,122,0.0,0.0,91,0.00,BKN,OVC,0.00,WeatherDisplay:10.37,2013-10-05 04:14:00,
2013-10-05 00:19:00,51.4,48.9,30.10,ESE,122,0.0,0.0,91,0.00,BKN,OVC,0.00,WeatherDisplay:10.37,2013-10-05 04:19:00,
2013-10-05 00:24:00,51.4,48.9,30.10,ESE,122,0.0,0.0,91,0.00,BKN,OVC,0.00,WeatherDisplay:10.37,2013-10-05 04:24:00,
2013-10-05 00:29:00,51.4,48.9,30.10,ESE,122,0.0,0.0,91,0.00,BKN,OVC,0.00,WeatherDisplay:10.37,2013-10-05 04:29:00,
2013-10-05 00:34:00,51.4,48.9,30.09,ESE,122,0.0,0.0,91,0.00,BKN,OVC,0.00,WeatherDisplay:10.37,2013-10-05 04:34:00,
2013-10-05 00:39:00,51.3,49.1,30.10,ESE,122,0.0,0.0,92,0.00,BKN,OVC,0.00,WeatherDisplay:10.37,2013-10-05 04:39:00,
2013-10-05 00:44:00,51.3,49.1,30.10,ESE,122,0.0,0.0,92,0.00,BKN,OVC,0.00,WeatherDisplay:10.37,2013-10-05 04:44:00,
2013-10-05 00:49:00,51.4,48.9,30.10,ESE,114,0.0,0.0,91,0.00,BKN,OVC,0.00,WeatherDisplay:10.37,2013-10-05 04:49:00,
2013-10-05 00:54:00,51.4,48.9,30.11,ESE,103,0.0,0.0,91,0.00,BKN,OVC,0.00,WeatherDisplay:10.37,2013-10-05 04:54:00,
2013-10-05 00:59:00,51.4,48.9,30.11,East,88,0.0,1.0,91,0.00,BKN,OVC,0.00,WeatherDisplay:10.37,2013-10-05 04:59:00,
2013-10-05 01:04:00,51.5,49.0,30.11,NE,54,0.0,0.0,91,0.00,BKN,OVC,0.00,WeatherDisplay:10.37,2013-10-05 05:04:00,
2013-10-05 01:09:00,51.5,48.7,30.10,NE,48,0.0,0.0,90,0.00,BKN,OVC,0.00,WeatherDisplay:10.37,2013-10-05 05:09:00,
2013-10-05 01:14:00,51.4,48.9,30.11,NE,48,0.0,0.0,91,0.00,OVC,OVC,0.00,WeatherDisplay:10.37,2013-10-05 05:14:00,
2013-10-05 01:19:00,51.3,48.8,30.11,NE,48,0.0,0.0,91,0.00,OVC,OVC,0.00,WeatherDisplay:10.37,2013-10-05 05:19:00,
2013-10-05 01:24:00,51.3,48.8,30.11,NE,48,0.0,0.0,91,0.00,OVC,OVC,0.00,WeatherDisplay:10.37,2013-10-05 05:24:00,
2013-10-05 01:29:00,51.5,48.7,30.11,NE,48,0.0,0.0,90,0.00,OVC,OVC,0.00,WeatherDisplay:10.37,2013-10-05 05:29:00,
2013-10-05 01:34:00,51.6,48.8,30.11,NE,48,0.0,1.0,90,0.00,OVC,OVC,0.00,WeatherDisplay:10.37,2013-10-05 05:34:00,
2013-10-05 01:39:00,51.7,48.3,30.11,NE,47,0.0,0.0,88,0.00,OVC,OVC,0.00,WeatherDisplay:10.37,2013-10-05 05:39:00,
2013-10-05 01:44:00,51.9,47.9,30.11,NE,46,0.0,0.0,86,0.00,OVC,OVC,0.00,WeatherDisplay:10.37,2013-10-05 05:44:00,
2013-10-05 01:49:00,52.1,47.4,30.11,NE,46,0.0,0.0,84,0.00,OVC,OVC,0.00,WeatherDisplay:10.37,2013-10-05 05:49:00,
2013-10-05 01:54:00,52.2,47.2,30.11,NE,46,0.0,0.0,83,0.00,OVC,OVC,0.00,WeatherDisplay:10.37,2013-10-05 05:54:00,
2013-10-05 01:59:00,52.2,46.5,30.11,ENE,71,0.0,0.0,81,0.00,OVC,OVC,0.00,WeatherDisplay:10.37,2013-10-05 05:59:00,
2013-10-05 02:04:00,52.3,46.6,30.11,East,99,0.0,0.0,81,0.00,OVC,OVC,0.00,WeatherDisplay:10.37,2013-10-05 06:04:00,
2013-10-05 02:09:00,52.3,46.0,30.11,ENE,70,0.0,0.0,79,0.00,OVC,OVC,0.00,WeatherDisplay:10.37,2013-10-05 06:09:00,
2013-10-05 02:14:00,52.3,45.6,30.11,ENE,64,0.0,0.0,78,0.00,OVC,OVC,0.00,WeatherDisplay:10.37,2013-10-05 06:14:00,
2013-10-05 02:19:00,52.3,45.0,30.11,ENE,64,0.0,0.0,76,0.00,OVC,OVC,0.00,WeatherDisplay:10.37,2013-10-05 06:19:00,
2013-10-05 02:24:00,52.3,45.0,30.11,ENE,64,0.0,0.0,76,0.00,OVC,OVC,0.00,WeatherDisplay:10.37,2013-10-05 06:24:00,
2013-10-05 02:29:00,52.2,45.2,30.11,ENE,64,0.0,0.0,77,0.00,OVC,OVC,0.00,WeatherDisplay:10.37,2013-10-05 06:29:00,
2013-10-05 02:34:00,52.0,44.7,30.11,ENE,64,0.0,0.0,76,0.00,OVC,OVC,0.00,WeatherDisplay:10.37,2013-10-05 06:34:00,
2013-10-05 02:39:00,52.0,43.6,30.11,ENE,59,0.0,1.0,73,0.00,OVC,OVC,0.00,WeatherDisplay:10.37,2013-10-05 06:39:00,
2013-10-05 02:44:00,52.0,43.9,30.11,NE,46,0.0,0.0,74,0.00,OVC,OVC,0.00,WeatherDisplay:10.37,2013-10-05 06:44:00,
2013-10-05 02:49:00,51.8,44.5,30.11,NE,46,0.0,0.0,76,0.00,OVC,OVC,0.00,WeatherDisplay:10.37,2013-10-05 06:49:00,
2013-10-05 02:54:00,51.9,42.8,30.11,NE,46,0.0,0.0,71,0.00,OVC,OVC,0.00,WeatherDisplay:10.37,2013-10-05 06:54:00,
2013-10-05 02:59:00,51.7,43.7,30.11,NE,46,0.0,0.0,74,0.00,OVC,OVC,0.00,WeatherDisplay:10.37,2013-10-05 06:59:00,
2013-10-05 03:04:00,51.6,44.6,30.11,NE,46,0.0,0.0,77,0.00,OVC,OVC,0.00,WeatherDisplay:10.37,2013-10-05 07:04:00,
2013-10-05 03:09:00,51.4,44.8,30.11,NE,46,0.0,0.0,78,0.00,OVC,OVC,0.00,WeatherDisplay:10.37,2013-10-05 07:09:00,
2013-10-05 03:14:00,51.3,44.7,30.11,NE,46,0.0,0.0,78,0.00,BKN,OVC,0.00,WeatherDisplay:10.37,2013-10-05 07:14:00,
2013-10-05 03:19:00,51.2,44.2,30.11,NE,46,0.0,0.0,77,0.00,BKN,OVC,0.00,WeatherDisplay:10.37,2013-10-05 07:19:00,
2013-10-05 03:24:00,51.2,44.2,30.11,NE,46,0.0,0.0,77,0.00,BKN,OVC,0.00,WeatherDisplay:10.37,2013-10-05 07:24:00,
2013-10-05 03:29:00,51.2,44.2,30.11,NE,46,0.0,0.0,77,0.00,BKN,OVC,0.00,WeatherDisplay:10.37,2013-10-05 07:29:00,
2013-10-05 03:34:00,51.3,44.3,30.11,NE,46,0.0,0.0,77,0.00,BKN,OVC,0.00,WeatherDisplay:10.37,2013-10-05 07:34:00,
2013-10-05 03:39:00,51.3,44.0,30.11,NE,46,0.0,0.0,76,0.00,BKN,OVC,0.00,WeatherDisplay:10.37,2013-10-05 07:39:00,
2013-10-05 03:44:00,51.3,45.0,30.11,NE,46,0.0,0.0,79,0.00,BKN,OVC,0.00,WeatherDisplay:10.37,2013-10-05 07:44:00,
2013-10-05 03:49:00,51.1,44.1,30.11,NE,46,0.0,0.0,77,0.00,BKN,OVC,0.00,WeatherDisplay:10.37,2013-10-05 07:49:00,
2013-10-05 03:54:00,51.0,44.0,30.11,NE,46,0.0,0.0,77,0.00,BKN,OVC,0.00,WeatherDisplay:10.37,2013-10-05 07:54:00,
2013-10-05 03:59:00,51.1,44.1,30.11,NE,46,0.0,0.0,77,0.00,BKN,OVC,0.00,WeatherDisplay:10.37,2013-10-05 07:59:00,
2013-10-05 04:04:00,50.9,44.3,30.11,NE,46,0.0,0.0,78,0.00,BKN,OVC,0.00,WeatherDisplay:10.37,2013-10-05 08:04:00,
2013-10-05 04:09:00,50.8,44.5,30.12,NE,46,0.0,0.0,79,0.00,BKN,OVC,0.00,WeatherDisplay:10.37,2013-10-05 08:09:00,
2013-10-05 04:14:00,50.7,43.8,30.12,NE,46,0.0,0.0,77,0.00,OVC,OVC,0.00,WeatherDisplay:10.37,2013-10-05 08:14:00,
2013-10-05 04:19:00,50.6,44.3,30.12,NE,46,0.0,0.0,79,0.00,OVC,OVC,0.00,WeatherDisplay:10.37,2013-10-05 08:19:00,
2013-10-05 04:24:00,50.4,44.5,30.12,NE,46,0.0,0.0,80,0.00,OVC,OVC,0.00,WeatherDisplay:10.37,2013-10-05 08:24:00,
2013-10-05 04:29:00,50.4,43.8,30.12,NE,46,0.0,0.0,78,0.00,OVC,OVC,0.00,WeatherDisplay:10.37,2013-10-05 08:29:00,
2013-10-05 04:34:00,50.5,43.6,30.12,NE,46,0.0,0.0,77,0.00,OVC,OVC,0.00,WeatherDisplay:10.37,2013-10-05 08:34:00,
2013-10-05 04:39:00,50.5,42.9,30.12,NE,46,0.0,0.0,75,0.00,OVC,OVC,0.00,WeatherDisplay:10.37,2013-10-05 08:39:00,
2013-10-05 04:44:00,50.6,43.7,30.12,NE,46,0.0,0.0,77,0.00,OVC,OVC,0.00,WeatherDisplay:10.37,2013-10-05 08:44:00,
2013-10-05 04:49:00,50.6,44.0,30.12,NE,46,0.0,0.0,78,0.00,OVC,OVC,0.00,WeatherDisplay:10.37,2013-10-05 08:49:00,
2013-10-05 04:54:00,50.6,44.3,30.12,NE,46,0.0,0.0,79,0.00,OVC,OVC,0.00,WeatherDisplay:10.37,2013-10-05 08:54:00,
2013-10-05 04:59:00,50.5,44.6,30.12,NE,46,0.0,0.0,80,0.00,OVC,OVC,0.00,WeatherDisplay:10.37,2013-10-05 08:59:00,
2013-10-05 05:04:00,50.3,43.4,30.12,NE,46,0.0,0.0,77,0.00,OVC,OVC,0.00,WeatherDisplay:10.37,2013-10-05 09:04:00,
2013-10-05 05:09:00,50.3,44.0,30.12,NE,46,0.0,0.0,79,0.00,OVC,OVC,0.00,WeatherDisplay:10.37,2013-10-05 09:09:00,
2013-10-05 05:14:00,50.4,44.4,30.11,NE,46,0.0,0.0,80,0.00,OVC,OVC,0.00,WeatherDisplay:10.37,2013-10-05 09:14:00,
2013-10-05 05:19:00,50.1,44.2,30.12,NE,46,0.0,0.0,80,0.00,OVC,OVC,0.00,WeatherDisplay:10.37,2013-10-05 09:19:00,
2013-10-05 05:24:00,49.8,43.6,30.12,NE,46,0.0,0.0,79,0.00,OVC,OVC,0.00,WeatherDisplay:10.37,2013-10-05 09:24:00,
2013-10-05 05:29:00,49.7,43.5,30.12,NE,46,0.0,0.0,79,0.00,OVC,OVC,0.00,WeatherDisplay:10.37,2013-10-05 09:29:00,
2013-10-05 05:34:00,49.8,43.2,30.12,NE,46,0.0,0.0,78,0.00,OVC,OVC,0.00,WeatherDisplay:10.37,2013-10-05 09:34:00,
2013-10-05 05:39:00,49.5,43.3,30.11,NE,46,0.0,0.0,79,0.00,OVC,OVC,0.00,WeatherDisplay:10.37,2013-10-05 09:39:00,
2013-10-05 05:44:00,49.2,42.6,30.11,NE,46,0.0,0.0,78,0.00,OVC,OVC,0.00,WeatherDisplay:10.37,2013-10-05 09:44:00,
2013-10-05 05:49:00,49.1,42.2,30.11,NE,46,0.0,0.0,77,0.00,OVC,OVC,0.00,WeatherDisplay:10.37,2013-10-05 09:49:00,
2013-10-05 05:54:00,49.1,42.5,30.12,NE,46,0.0,0.0,78,0.00,OVC,OVC,0.00,WeatherDisplay:10.37,2013-10-05 09:54:00,
2013-10-05 06:04:00,49.4,43.5,30.12,NE,46,0.0,0.0,80,0.00,OVC,OVC,0.00,WeatherDisplay:10.37,2013-10-05 10:04:00,
2013-10-05 06:09:00,49.4,43.2,30.12,NE,46,0.0,0.0,79,0.00,OVC,OVC,0.00,WeatherDisplay:10.37,2013-10-05 10:09:00,
2013-10-05 06:14:00,49.3,43.4,30.12,NE,46,0.0,0.0,80,0.00,-RA,OVC,0.00,WeatherDisplay:10.37,2013-10-05 10:14:00,
2013-10-05 06:19:00,49.3,43.7,30.12,NE,46,0.0,0.0,81,0.00,-RA,OVC,0.00,WeatherDisplay:10.37,2013-10-05 10:19:00,
2013-10-05 06:24:00,49.4,43.8,30.12,NE,46,0.0,0.0,81,0.00,-RA,OVC,0.00,WeatherDisplay:10.37,2013-10-05 10:24:00,
2013-10-05 06:29:00,49.3,43.7,30.13,NE,46,0.0,0.0,81,0.00,-RA,OVC,0.00,WeatherDisplay:10.37,2013-10-05 10:29:00,
2013-10-05 06:34:00,49.6,43.3,30.13,NE,46,0.0,0.0,79,0.00,-RA,OVC,0.00,WeatherDisplay:10.37,2013-10-05 10:34:00,
2013-10-05 06:39:00,49.8,43.9,30.13,NE,46,0.0,0.0,80,0.00,-RA,OVC,0.00,WeatherDisplay:10.37,2013-10-05 10:39:00,
2013-10-05 06:44:00,49.9,43.0,30.13,NE,46,0.0,0.0,77,0.00,-RA,OVC,0.00,WeatherDisplay:10.37,2013-10-05 10:44:00,
2013-10-05 06:49:00,50.0,43.4,30.13,NE,46,0.0,0.0,78,0.00,-RA,OVC,0.00,WeatherDisplay:10.37,2013-10-05 10:49:00,
2013-10-05 06:54:00,50.0,44.1,30.13,NE,46,0.0,0.0,80,0.00,-RA,OVC,0.00,WeatherDisplay:10.37,2013-10-05 10:54:00,
2013-10-05 06:59:00,49.7,43.1,30.13,NE,46,0.0,0.0,78,0.00,-RA,OVC,0.00,WeatherDisplay:10.37,2013-10-05 10:59:00,
2013-10-05 07:04:00,49.7,42.5,30.14,NE,46,0.0,0.0,76,0.00,-RA,OVC,0.00,WeatherDisplay:10.37,2013-10-05 11:04:00,
2013-10-05 07:09:00,49.8,42.5,30.13,NE,46,0.0,0.0,76,0.00,-RA,OVC,0.00,WeatherDisplay:10.37,2013-10-05 11:09:00,
2013-10-05 07:14:00,49.6,43.0,30.13,NE,46,0.0,0.0,78,0.00,-RA,OVC,0.00,WeatherDisplay:10.37,2013-10-05 11:14:00,
2013-10-05 07:19:00,49.3,43.1,30.13,NE,46,0.0,0.0,79,0.00,-RA,OVC,0.00,WeatherDisplay:10.37,2013-10-05 11:19:00,
2013-10-05 07:29:00,48.9,43.3,30.14,NE,46,0.0,0.0,81,0.00,-RA,OVC,0.00,WeatherDisplay:10.37,2013-10-05 11:29:00,
2013-10-05 07:34:00,48.9,43.6,30.14,NE,46,0.0,0.0,82,0.00,-RA,OVC,0.00,WeatherDisplay:10.37,2013-10-05 11:34:00,
2013-10-05 07:39:00,49.0,42.8,30.14,NE,46,0.0,0.0,79,0.00,-RA,OVC,0.00,WeatherDisplay:10.37,2013-10-05 11:39:00,
2013-10-05 07:44:00,49.2,43.6,30.15,NE,46,0.0,0.0,81,0.00,-RA,OVC,0.00,WeatherDisplay:10.37,2013-10-05 11:44:00,
2013-10-05 07:49:00,49.3,44.0,30.15,NE,46,0.0,0.0,82,0.00,-RA,OVC,0.00,WeatherDisplay:10.37,2013-10-05 11:49:00,
2013-10-05 07:54:00,49.4,43.8,30.14,NE,46,0.0,0.0,81,0.00,-RA,OVC,0.00,WeatherDisplay:10.37,2013-10-05 11:54:00,
2013-10-05 07:59:00,49.5,43.9,30.14,NE,46,0.0,0.0,81,0.00,-RA,OVC,0.00,WeatherDisplay:10.37,2013-10-05 11:59:00,
2013-10-05 08:04:00,49.5,44.2,30.14,NE,46,0.0,0.0,82,0.00,-RA,OVC,0.00,WeatherDisplay:10.37,2013-10-05 12:04:00,
2013-10-05 08:09:00,49.8,44.2,30.14,NE,46,0.0,0.0,81,0.00,-RA,OVC,0.00,WeatherDisplay:10.37,2013-10-05 12:09:00,
2013-10-05 08:14:00,50.2,44.2,30.14,NE,46,0.0,0.0,80,0.00,BKN,OVC,0.00,WeatherDisplay:10.37,2013-10-05 12:14:00,
2013-10-05 08:19:00,50.8,44.2,30.15,NE,46,0.0,0.0,78,0.00,BKN,OVC,0.00,WeatherDisplay:10.37,2013-10-05 12:19:00,
2013-10-05 08:24:00,51.3,44.6,30.14,NE,46,0.0,0.0,78,0.00,BKN,OVC,0.00,WeatherDisplay:10.37,2013-10-05 12:24:00,
2013-10-05 08:29:00,51.6,42.8,30.15,NE,46,0.0,0.0,72,0.00,BKN,OVC,0.00,WeatherDisplay:10.37,2013-10-05 12:29:00,
2013-10-05 08:34:00,52.1,43.0,30.15,NE,47,0.0,0.0,71,0.00,BKN,OVC,0.00,WeatherDisplay:10.37,2013-10-05 12:34:00,
2013-10-05 08:39:00,52.3,43.5,30.15,ENE,75,0.0,0.0,72,0.00,BKN,OVC,0.00,WeatherDisplay:10.37,2013-10-05 12:39:00,
2013-10-05 08:44:00,52.4,43.3,30.15,East,88,0.0,3.0,71,0.00,BKN,OVC,0.00,WeatherDisplay:10.37,2013-10-05 12:44:00,
2013-10-05 08:49:00,52.4,42.9,30.15,East,98,0.0,3.0,70,0.00,BKN,OVC,0.00,WeatherDisplay:10.37,2013-10-05 12:49:00,
2013-10-05 08:54:00,52.5,42.2,30.16,ESE,105,0.0,1.0,68,0.00,BKN,OVC,0.00,WeatherDisplay:10.37,2013-10-05 12:54:00,
2013-10-05 08:59:00,52.7,43.2,30.15,East,87,0.0,1.0,70,0.00,BKN,OVC,0.00,WeatherDisplay:10.37,2013-10-05 12:59:00,
2013-10-05 09:04:00,53.0,43.5,30.15,East,86,0.0,0.0,70,0.00,BKN,OVC,0.00,WeatherDisplay:10.37,2013-10-05 13:04:00,
2013-10-05 09:09:00,53.2,42.5,30.15,East,95,0.0,2.0,67,0.00,BKN,OVC,0.00,WeatherDisplay:10.37,2013-10-05 13:09:00,
2013-10-05 09:14:00,53.3,42.2,30.15,East,101,0.0,2.0,66,0.00,BKN,OVC,0.00,WeatherDisplay:10.37,2013-10-05 13:14:00,
2013-10-05 09:19:00,53.6,42.5,30.15,East,94,0.0,0.0,66,0.00,BKN,OVC,0.00,WeatherDisplay:10.37,2013-10-05 13:19:00,
2013-10-05 09:24:00,53.7,41.4,30.15,East,92,1.0,3.0,63,0.00,BKN,OVC,0.00,WeatherDisplay:10.37,2013-10-05 13:24:00,
2013-10-05 09:29:00,53.6,40.9,30.15,East,92,0.0,2.0,62,0.00,BKN,OVC,0.00,WeatherDisplay:10.37,2013-10-05 13:29:00,
2013-10-05 09:34:00,53.9,42.8,30.15,East,80,0.0,0.0,66,0.00,BKN,OVC,0.00,WeatherDisplay:10.37,2013-10-05 13:34:00,
2013-10-05 09:39:00,54.2,43.1,30.15,East,81,0.0,2.0,66,0.00,BKN,OVC,0.00,WeatherDisplay:10.37,2013-10-05 13:39:00,
2013-10-05 09:44:00,54.0,40.4,30.15,ESE,102,1.0,6.0,60,0.00,BKN,OVC,0.00,WeatherDisplay:10.37,2013-10-05 13:44:00,
2013-10-05 09:49:00,53.8,40.7,30.15,East,94,0.0,3.0,61,0.00,BKN,OVC,0.00,WeatherDisplay:10.37,2013-10-05 13:49:00,
2013-10-05 09:54:00,53.7,41.4,30.16,ENE,75,0.0,5.0,63,0.00,BKN,OVC,0.00,WeatherDisplay:10.37,2013-10-05 13:54:00,
2013-10-05 09:59:00,53.8,42.3,30.16,East,99,0.0,3.0,65,0.00,BKN,OVC,0.00,WeatherDisplay:10.37,2013-10-05 13:59:00,
2013-10-05 10:04:00,53.9,42.0,30.16,ESE,103,0.0,3.0,64,0.00,BKN,OVC,0.00,WeatherDisplay:10.37,2013-10-05 14:04:00,
2013-10-05 10:09:00,54.1,41.4,30.16,East,90,0.0,1.0,62,0.00,BKN,OVC,0.00,WeatherDisplay:10.37,2013-10-05 14:09:00,
2013-10-05 10:14:00,54.5,41.8,30.16,East,85,0.0,0.0,62,0.00,BKN,OVC,0.00,WeatherDisplay:10.37,2013-10-05 14:14:00,
2013-10-05 10:19:00,54.9,42.5,30.16,East,94,0.0,1.0,63,0.00,BKN,OVC,0.00,WeatherDisplay:10.37,2013-10-05 14:19:00,
2013-10-05 10:24:00,54.6,41.8,30.16,East,79,0.0,3.0,62,0.00,BKN,OVC,0.00,WeatherDisplay:10.37,2013-10-05 14:24:00,
2013-10-05 10:29:00,54.4,41.2,30.16,NE,44,0.0,0.0,61,0.00,BKN,OVC,0.00,WeatherDisplay:10.37,2013-10-05 14:29:00,
2013-10-05 10:34:00,54.7,42.3,30.16,ENE,68,0.0,1.0,63,0.00,BKN,OVC,0.00,WeatherDisplay:10.37,2013-10-05 14:34:00,
2013-10-05 10:39:00,54.8,41.2,30.16,East,95,0.0,2.0,60,0.00,BKN,OVC,0.00,WeatherDisplay:10.37,2013-10-05 14:39:00,
2013-10-05 10:44:00,54.9,41.3,30.17,East,85,0.0,4.0,60,0.00,BKN,OVC,0.00,WeatherDisplay:10.37,2013-10-05 14:44:00,
2013-10-05 10:49:00,55.2,41.9,30.16,ESE,110,0.0,3.0,61,0.00,BKN,OVC,0.00,WeatherDisplay:10.37,2013-10-05 14:49:00,
2013-10-05 10:54:00,55.6,42.8,30.16,East,96,0.0,1.0,62,0.00,BKN,OVC,0.00,WeatherDisplay:10.37,2013-10-05 14:54:00,
2013-10-05 10:59:00,56.1,43.2,30.16,East,93,0.0,0.0,62,0.00,BKN,OVC,0.00,WeatherDisplay:10.37,2013-10-05 14:59:00,
2013-10-05 11:04:00,56.0,42.3,30.16,East,81,0.0,1.0,60,0.00,BKN,OVC,0.00,WeatherDisplay:10.37,2013-10-05 15:04:00,
2013-10-05 11:09:00,55.5,41.8,30.16,ENE,59,0.0,0.0,60,0.00,BKN,OVC,0.00,WeatherDisplay:10.37,2013-10-05 15:09:00,
2013-10-05 11:14:00,55.6,41.9,30.15,ENE,70,0.0,2.0,60,0.00,BKN,OVC,0.00,WeatherDisplay:10.37,2013-10-05 15:14:00,
2013-10-05 11:19:00,56.8,43.0,30.15,ESE,115,0.0,2.0,60,0.00,BKN,OVC,0.00,WeatherDisplay:10.37,2013-10-05 15:19:00,
2013-10-05 11:24:00,57.1,44.2,30.15,East,91,0.0,1.0,62,0.00,BKN,OVC,0.00,WeatherDisplay:10.37,2013-10-05 15:24:00,
2013-10-05 11:29:00,57.4,43.6,30.15,North,7,0.0,1.0,60,0.00,BKN,OVC,0.00,WeatherDisplay:10.37,2013-10-05 15:29:00,
2013-10-05 11:34:00,57.3,41.7,30.15,NE,45,0.0,3.0,56,0.00,BKN,OVC,0.00,WeatherDisplay:10.37,2013-10-05 15:34:00,
2013-10-05 11:39:00,57.3,42.2,30.15,ESE,114,1.0,3.0,57,0.00,BKN,OVC,0.00,WeatherDisplay:10.37,2013-10-05 15:39:00,
2013-10-05 11:44:00,57.4,43.6,30.15,ESE,119,0.0,3.0,60,0.00,BKN,OVC,0.00,WeatherDisplay:10.37,2013-10-05 15:44:00,
2013-10-05 11:49:00,57.4,41.8,30.15,SE,130,0.0,3.0,56,0.00,BKN,OVC,0.00,WeatherDisplay:10.37,2013-10-05 15:49:00,
2013-10-05 11:54:00,57.4,42.3,30.15,East,101,0.0,4.0,57,0.00,BKN,OVC,0.00,WeatherDisplay:10.37,2013-10-05 15:54:00,
2013-10-05 11:59:00,57.9,43.2,30.15,East,87,0.0,3.0,58,0.00,BKN,OVC,0.00,WeatherDisplay:10.37,2013-10-05 15:59:00,
2013-10-05 12:04:00,57.8,41.7,30.15,ENE,65,0.0,1.0,55,0.00,BKN,OVC,0.00,WeatherDisplay:10.37,2013-10-05 16:04:00,
2013-10-05 12:09:00,57.9,41.3,30.15,NE,49,0.0,0.0,54,0.00,BKN,OVC,0.00,WeatherDisplay:10.37,2013-10-05 16:09:00,
2013-10-05 12:14:00,57.6,41.1,30.15,NE,49,0.0,0.0,54,0.00,BKN,OVC,0.00,WeatherDisplay:10.37,2013-10-05 16:14:00,
2013-10-05 12:19:00,57.8,41.8,30.15,ENE,57,0.0,2.0,55,0.00,BKN,OVC,0.00,WeatherDisplay:10.37,2013-10-05 16:19:00,
2013-10-05 12:24:00,57.8,42.2,30.15,ESE,117,0.0,3.0,56,0.00,BKN,OVC,0.00,WeatherDisplay:10.37,2013-10-05 16:24:00,
2013-10-05 12:29:00,57.6,41.1,30.15,ESE,113,0.0,3.0,54,0.00,BKN,OVC,0.00,WeatherDisplay:10.37,2013-10-05 16:29:00,
2013-10-05 12:34:00,58.1,41.6,30.15,SE,132,0.0,2.0,54,0.00,BKN,OVC,0.00,WeatherDisplay:10.37,2013-10-05 16:34:00,
2013-10-05 12:39:00,58.5,41.5,30.14,SE,142,0.0,1.0,53,0.00,BKN,OVC,0.00,WeatherDisplay:10.37,2013-10-05 16:39:00,
2013-10-05 12:44:00,58.8,41.2,30.14,SE,137,1.0,5.0,52,0.00,BKN,OVC,0.00,WeatherDisplay:10.37,2013-10-05 16:44:00,
2013-10-05 12:49:00,59.0,40.9,30.14,ESE,123,0.0,1.0,51,0.00,BKN,OVC,0.00,WeatherDisplay:10.37,2013-10-05 16:49:00,
2013-10-05 12:54:00,59.7,43.5,30.14,NNE,18,0.0,3.0,55,0.00,BKN,OVC,0.00,WeatherDisplay:10.37,2013-10-05 16:54:00,
2013-10-05 12:59:00,59.2,41.6,30.13,NNW,340,0.0,4.0,52,0.00,BKN,OVC,0.00,WeatherDisplay:10.37,2013-10-05 16:59:00,
2013-10-05 13:04:00,58.9,41.8,30.13,ENE,70,0.0,3.0,53,0.00,BKN,OVC,0.00,WeatherDisplay:10.37,2013-10-05 17:04:00,
2013-10-05 13:09:00,58.9,42.2,30.13,East,97,0.0,3.0,54,0.00,BKN,OVC,0.00,WeatherDisplay:10.37,2013-10-05 17:09:00,
2013-10-05 13:14:00,59.2,41.6,30.13,ENE,64,0.0,5.0,52,0.00,BKN,OVC,0.00,WeatherDisplay:10.37,2013-10-05 17:14:00,
2013-10-05 13:19:00,59.7,42.5,30.13,NE,37,0.0,2.0,53,0.00,BKN,OVC,0.00,WeatherDisplay:10.37,2013-10-05 17:19:00,
2013-10-05 13:24:00,59.8,41.6,30.12,NE,50,0.0,2.0,51,0.00,BKN,OVC,0.00,WeatherDisplay:10.37,2013-10-05 17:24:00,
2013-10-05 13:29:00,59.3,41.7,30.12,ESE,115,0.0,0.0,52,0.00,BKN,OVC,0.00,WeatherDisplay:10.37,2013-10-05 17:29:00,
2013-10-05 13:34:00,59.1,42.0,30.12,SE,136,0.0,2.0,53,0.00,BKN,OVC,0.00,WeatherDisplay:10.37,2013-10-05 17:34:00,
2013-10-05 13:39:00,59.5,40.3,30.12,SE,141,0.0,2.0,49,0.00,BKN,OVC,0.00,WeatherDisplay:10.37,2013-10-05 17:39:00,
2013-10-05 13:44:00,59.9,41.7,30.11,East,98,1.0,6.0,51,0.00,BKN,OVC,0.00,WeatherDisplay:10.37,2013-10-05 17:44:00,
2013-10-05 13:49:00,60.1,42.9,30.11,East,97,0.0,0.0,53,0.00,BKN,OVC,0.00,WeatherDisplay:10.37,2013-10-05 17:49:00,
2013-10-05 13:54:00,60.4,41.7,30.11,East,101,0.0,1.0,50,0.00,BKN,OVC,0.00,WeatherDisplay:10.37,2013-10-05 17:54:00,
2013-10-05 13:59:00,60.8,41.5,30.11,ESE,120,0.0,2.0,49,0.00,BKN,OVC,0.00,WeatherDisplay:10.37,2013-10-05 17:59:00,
2013-10-05 14:04:00,60.8,42.0,30.10,SE,128,0.0,2.0,50,0.00,BKN,OVC,0.00,WeatherDisplay:10.37,2013-10-05 18:04:00,
2013-10-05 14:09:00,60.8,42.0,30.10,East,100,0.0,2.0,50,0.00,BKN,OVC,0.00,WeatherDisplay:10.37,2013-10-05 18:09:00,
2013-10-05 14:14:00,60.4,41.1,30.10,SSE,162,0.0,5.0,49,0.00,BKN,OVC,0.00,WeatherDisplay:10.37,2013-10-05 18:14:00,
2013-10-05 14:19:00,60.9,42.1,30.11,SSE,165,0.0,1.0,50,0.00,BKN,OVC,0.00,WeatherDisplay:10.37,2013-10-05 18:19:00,
2013-10-05 14:44:00,61.6,42.8,30.10,ESE,117,0.0,2.0,50,0.00,BKN,OVC,0.00,WeatherDisplay:10.37,2013-10-05 18:44:00,
2013-10-05 14:49:00,61.3,41.4,30.10,East,96,0.0,1.0,48,0.00,BKN,OVC,0.00,WeatherDisplay:10.37,2013-10-05 18:49:00,
2013-10-05 14:54:00,61.3,43.0,30.10,ESE,108,0.0,3.0,51,0.00,BKN,OVC,0.00,WeatherDisplay:10.37,2013-10-05 18:54:00,
2013-10-05 15:04:00,61.5,43.2,30.10,South,171,0.0,2.0,51,0.00,BKN,OVC,0.00,WeatherDisplay:10.37,2013-10-05 19:04:00,
2013-10-05 15:09:00,61.6,42.2,30.10,SE,130,0.0,1.0,49,0.00,BKN,OVC,0.00,WeatherDisplay:10.37,2013-10-05 19:09:00,
2013-10-05 15:14:00,61.4,42.0,30.10,SE,128,0.0,1.0,49,0.00,BKN,OVC,0.00,WeatherDisplay:10.37,2013-10-05 19:14:00,
2013-10-05 15:19:00,61.5,43.7,30.10,ESE,123,0.0,5.0,52,0.00,BKN,OVC,0.00,WeatherDisplay:10.37,2013-10-05 19:19:00,
2013-10-05 15:29:00,61.5,43.2,30.10,SE,146,0.0,0.0,51,0.00,BKN,OVC,0.00,WeatherDisplay:10.37,2013-10-05 19:29:00,
2013-10-05 15:34:00,61.5,43.2,30.10,SE,144,0.0,3.0,51,0.00,BKN,OVC,0.00,WeatherDisplay:10.37,2013-10-05 19:34:00,
2013-10-05 15:39:00,61.5,42.2,30.10,SE,135,0.0,2.0,49,0.00,BKN,OVC,0.00,WeatherDisplay:10.37,2013-10-05 19:39:00,
2013-10-05 15:44:00,61.1,43.8,30.10,SE,127,0.0,0.0,53,0.00,BKN,OVC,0.00,WeatherDisplay:10.37,2013-10-05 19:44:00,
2013-10-05 15:49:00,61.3,42.5,30.10,SE,129,0.0,1.0,50,0.00,BKN,OVC,0.00,WeatherDisplay:10.37,2013-10-05 19:49:00,
2013-10-05 15:54:00,61.2,43.5,30.10,ESE,122,0.0,0.0,52,0.00,BKN,OVC,0.00,WeatherDisplay:10.37,2013-10-05 19:54:00,
2013-10-05 15:59:00,61.1,43.3,30.10,ESE,115,0.0,0.0,52,0.00,BKN,OVC,0.00,WeatherDisplay:10.37,2013-10-05 19:59:00,
2013-10-05 16:04:00,61.1,42.3,30.10,ESE,115,0.0,1.0,50,0.00,BKN,OVC,0.00,WeatherDisplay:10.37,2013-10-05 20:04:00,
2013-10-05 16:09:00,61.3,43.0,30.10,SE,138,0.0,2.0,51,0.00,BKN,OVC,0.00,WeatherDisplay:10.37,2013-10-05 20:09:00,
2013-10-05 16:14:00,61.5,43.2,30.10,SE,139,0.0,3.0,51,0.00,OVC,OVC,0.00,WeatherDisplay:10.37,2013-10-05 20:14:00,
2013-10-05 16:19:00,61.4,43.1,30.10,ESE,108,0.0,0.0,51,0.00,OVC,OVC,0.00,WeatherDisplay:10.37,2013-10-05 20:19:00,
2013-10-05 16:24:00,61.4,43.6,30.10,East,95,0.0,0.0,52,0.00,OVC,OVC,0.00,WeatherDisplay:10.37,2013-10-05 20:24:00,
2013-10-05 16:29:00,60.9,42.2,30.10,East,95,0.0,1.0,50,0.00,OVC,OVC,0.00,WeatherDisplay:10.37,2013-10-05 20:29:00,
2013-10-05 16:34:00,60.9,42.6,30.10,ESE,103,0.0,1.0,51,0.00,OVC,OVC,0.00,WeatherDisplay:10.37,2013-10-05 20:34:00,
2013-10-05 16:39:00,61.1,43.3,30.10,SE,128,0.0,0.0,52,0.00,OVC,OVC,0.00,WeatherDisplay:10.37,2013-10-05 20:39:00,
2013-10-05 16:44:00,61.1,42.3,30.10,SE,133,0.0,0.0,50,0.00,OVC,OVC,0.00,WeatherDisplay:10.37,2013-10-05 20:44:00,
2013-10-05 16:49:00,61.0,41.7,30.10,SE,132,0.0,1.0,49,0.00,OVC,OVC,0.00,WeatherDisplay:10.37,2013-10-05 20:49:00,
2013-10-05 16:54:00,60.9,43.2,30.10,SE,130,0.0,0.0,52,0.00,OVC,OVC,0.00,WeatherDisplay:10.37,2013-10-05 20:54:00,
2013-10-05 16:59:00,60.5,42.8,30.10,SE,130,0.0,0.0,52,0.00,OVC,OVC,0.00,WeatherDisplay:10.37,2013-10-05 20:59:00,
2013-10-05 17:04:00,60.4,42.7,30.10,SE,130,0.0,0.0,52,0.00,OVC,OVC,0.00,WeatherDisplay:10.37,2013-10-05 21:04:00,
2013-10-05 17:09:00,60.2,43.0,30.10,SE,130,0.0,0.0,53,0.00,OVC,OVC,0.00,WeatherDisplay:10.37,2013-10-05 21:09:00,
2013-10-05 17:14:00,60.1,43.8,30.10,SE,130,0.0,0.0,55,0.00,OVC,OVC,0.00,WeatherDisplay:10.37,2013-10-05 21:14:00,
2013-10-05 17:19:00,59.7,44.4,30.10,SE,130,0.0,0.0,57,0.00,OVC,OVC,0.00,WeatherDisplay:10.37,2013-10-05 21:19:00,
2013-10-05 17:24:00,59.7,43.5,30.10,SE,133,0.0,0.0,55,0.00,OVC,OVC,0.00,WeatherDisplay:10.37,2013-10-05 21:24:00,
2013-10-05 17:29:00,59.8,43.6,30.10,SE,135,0.0,0.0,55,0.00,OVC,OVC,0.00,WeatherDisplay:10.37,2013-10-05 21:29:00,
2013-10-05 17:34:00,59.5,43.8,30.11,SE,136,0.0,0.0,56,0.00,OVC,OVC,0.00,WeatherDisplay:10.37,2013-10-05 21:34:00,
2013-10-05 17:39:00,59.4,44.1,30.10,SE,135,0.0,0.0,57,0.00,OVC,OVC,0.00,WeatherDisplay:10.37,2013-10-05 21:39:00,
2013-10-05 17:44:00,59.0,43.8,30.10,SE,134,0.0,0.0,57,0.00,OVC,OVC,0.00,WeatherDisplay:10.37,2013-10-05 21:44:00,
2013-10-05 17:49:00,58.5,44.2,30.10,SE,134,0.0,0.0,59,0.00,OVC,OVC,0.00,WeatherDisplay:10.37,2013-10-05 21:49:00,
2013-10-05 17:54:00,58.0,44.2,30.10,SE,134,0.0,0.0,60,0.00,OVC,OVC,0.00,WeatherDisplay:10.37,2013-10-05 21:54:00,
2013-10-05 17:59:00,57.7,43.9,30.11,SE,134,0.0,0.0,60,0.00,OVC,OVC,0.00,WeatherDisplay:10.37,2013-10-05 21:59:00,
2013-10-05 18:04:00,57.4,44.1,30.10,SE,134,0.0,0.0,61,0.00,OVC,OVC,0.00,WeatherDisplay:10.37,2013-10-05 22:04:00,
2013-10-05 18:09:00,56.7,45.5,30.11,SE,134,0.0,0.0,66,0.00,OVC,OVC,0.00,WeatherDisplay:10.37,2013-10-05 22:09:00,
2013-10-05 18:14:00,56.1,46.0,30.11,SE,134,0.0,0.0,69,0.00,BKN,OVC,0.00,WeatherDisplay:10.37,2013-10-05 22:14:00,
2013-10-05 18:19:00,55.4,45.0,30.11,SE,134,0.0,0.0,68,0.00,BKN,OVC,0.00,WeatherDisplay:10.37,2013-10-05 22:19:00,
2013-10-05 18:24:00,54.7,45.8,30.11,SE,134,0.0,0.0,72,0.00,BKN,OVC,0.00,WeatherDisplay:10.37,2013-10-05 22:24:00,
2013-10-05 18:29:00,54.1,45.6,30.11,SE,134,0.0,0.0,73,0.00,BKN,OVC,0.00,WeatherDisplay:10.37,2013-10-05 22:29:00,
2013-10-05 18:34:00,53.5,45.1,30.11,SE,134,0.0,0.0,73,0.00,BKN,OVC,0.00,WeatherDisplay:10.37,2013-10-05 22:34:00,
2013-10-05 18:39:00,53.2,45.5,30.11,SE,134,0.0,0.0,75,0.00,BKN,OVC,0.00,WeatherDisplay:10.37,2013-10-05 22:39:00,
2013-10-05 18:44:00,52.6,45.2,30.11,SE,134,0.0,0.0,76,0.00,BKN,OVC,0.00,WeatherDisplay:10.37,2013-10-05 22:44:00,
2013-10-05 18:49:00,52.2,45.2,30.11,SE,134,0.0,0.0,77,0.00,BKN,OVC,0.00,WeatherDisplay:10.37,2013-10-05 22:49:00,
2013-10-05 18:54:00,52.0,45.3,30.11,SE,134,0.0,0.0,78,0.00,BKN,OVC,0.00,WeatherDisplay:10.37,2013-10-05 22:54:00,
2013-10-05 18:59:00,51.7,45.4,30.11,SE,134,0.0,0.0,79,0.00,BKN,OVC,0.00,WeatherDisplay:10.37,2013-10-05 22:59:00,
2013-10-05 19:04:00,51.4,45.1,30.11,SE,134,0.0,0.0,79,0.00,BKN,OVC,0.00,WeatherDisplay:10.37,2013-10-05 23:04:00,
2013-10-05 19:09:00,51.2,44.9,30.11,SE,134,0.0,0.0,79,0.00,BKN,OVC,0.00,WeatherDisplay:10.37,2013-10-05 23:09:00,
2013-10-05 19:14:00,50.8,44.9,30.11,SE,134,0.0,0.0,80,0.00,BKN,OVC,0.00,WeatherDisplay:10.37,2013-10-05 23:14:00,
2013-10-05 19:19:00,50.5,44.6,30.11,SE,134,0.0,0.0,80,0.00,BKN,OVC,0.00,WeatherDisplay:10.37,2013-10-05 23:19:00,
2013-10-05 19:24:00,50.5,44.9,30.12,SE,134,0.0,0.0,81,0.00,BKN,OVC,0.00,WeatherDisplay:10.37,2013-10-05 23:24:00,
2013-10-05 19:29:00,50.6,45.0,30.12,SE,134,0.0,0.0,81,0.00,BKN,OVC,0.00,WeatherDisplay:10.37,2013-10-05 23:29:00,
2013-10-05 19:34:00,50.6,45.3,30.11,SE,134,0.0,0.0,82,0.00,BKN,OVC,0.00,WeatherDisplay:10.37,2013-10-05 23:34:00,
2013-10-05 19:39:00,50.4,44.8,30.12,SE,134,0.0,0.0,81,0.00,BKN,OVC,0.00,WeatherDisplay:10.37,2013-10-05 23:39:00,
2013-10-05 19:44:00,50.2,44.9,30.12,SE,134,0.0,0.0,82,0.00,BKN,OVC,0.00,WeatherDisplay:10.37,2013-10-05 23:44:00,
2013-10-05 19:49:00,50.2,44.9,30.12,SE,134,0.0,0.0,82,0.00,BKN,OVC,0.00,WeatherDisplay:10.37,2013-10-05 23:49:00,
2013-10-05 19:54:00,50.2,45.2,30.12,SE,134,0.0,0.0,83,0.00,BKN,OVC,0.00,WeatherDisplay:10.37,2013-10-05 23:54:00,
2013-10-05 19:59:00,50.2,45.2,30.12,SE,134,0.0,0.0,83,0.00,BKN,OVC,0.00,WeatherDisplay:10.37,2013-10-05 23:59:00,
2013-10-05 20:04:00,50.1,44.9,30.12,SE,134,0.0,0.0,82,0.00,BKN,OVC,0.00,WeatherDisplay:10.37,2013-10-06 00:04:00,
2013-10-05 20:09:00,50.0,45.4,30.12,SE,134,0.0,0.0,84,0.00,BKN,OVC,0.00,WeatherDisplay:10.37,2013-10-06 00:09:00,
2013-10-05 20:14:00,50.0,45.4,30.13,SE,134,0.0,0.0,84,0.00,OVC,OVC,0.00,WeatherDisplay:10.37,2013-10-06 00:14:00,
2013-10-05 20:19:00,50.1,45.5,30.13,SE,134,0.0,0.0,84,0.00,OVC,OVC,0.00,WeatherDisplay:10.37,2013-10-06 00:19:00,
2013-10-05 20:24:00,50.1,45.2,30.13,SE,134,0.0,0.0,83,0.00,OVC,OVC,0.00,WeatherDisplay:10.37,2013-10-06 00:24:00,
2013-10-05 20:29:00,50.0,45.3,30.13,SE,134,0.0,0.0,84,0.00,OVC,OVC,0.00,WeatherDisplay:10.37,2013-10-06 00:29:00,
2013-10-05 20:34:00,49.8,45.1,30.14,SE,134,0.0,0.0,84,0.00,OVC,OVC,0.00,WeatherDisplay:10.37,2013-10-06 00:34:00,
2013-10-05 20:39:00,49.7,45.1,30.14,SE,134,0.0,0.0,84,0.00,OVC,OVC,0.00,WeatherDisplay:10.37,2013-10-06 00:39:00,
2013-10-05 20:44:00,49.7,45.0,30.14,SE,134,0.0,0.0,84,0.00,OVC,OVC,0.00,WeatherDisplay:10.37,2013-10-06 00:44:00,
2013-10-05 20:49:00,49.5,44.9,30.14,SE,134,0.0,0.0,84,0.00,OVC,OVC,0.00,WeatherDisplay:10.37,2013-10-06 00:49:00,
2013-10-05 20:54:00,49.4,45.1,30.14,SE,134,0.0,0.0,85,0.00,OVC,OVC,0.00,WeatherDisplay:10.37,2013-10-06 00:54:00,
2013-10-05 20:59:00,49.3,45.0,30.15,SE,134,0.0,0.0,85,0.00,OVC,OVC,0.00,WeatherDisplay:10.37,2013-10-06 00:59:00,
2013-10-05 21:04:00,49.1,44.7,30.15,SE,134,0.0,0.0,85,0.00,OVC,OVC,0.00,WeatherDisplay:10.37,2013-10-06 01:04:00,
2013-10-05 21:09:00,48.9,44.6,30.15,SE,134,0.0,0.0,85,0.00,OVC,OVC,0.00,WeatherDisplay:10.37,2013-10-06 01:09:00,
2013-10-05 21:14:00,48.8,44.8,30.15,SE,134,0.0,0.0,86,0.00,BKN,OVC,0.00,WeatherDisplay:10.37,2013-10-06 01:14:00,
2013-10-05 21:19:00,48.7,44.7,30.15,SE,134,0.0,0.0,86,0.00,BKN,OVC,0.00,WeatherDisplay:10.37,2013-10-06 01:19:00,
2013-10-05 21:24:00,48.6,44.6,30.15,SE,134,0.0,0.0,86,0.00,BKN,OVC,0.00,WeatherDisplay:10.37,2013-10-06 01:24:00,
2013-10-05 21:29:00,48.5,44.8,30.15,SE,134,0.0,0.0,87,0.00,BKN,OVC,0.00,WeatherDisplay:10.37,2013-10-06 01:29:00,
2013-10-05 21:34:00,48.5,44.8,30.15,SE,134,0.0,0.0,87,0.00,BKN,OVC,0.00,WeatherDisplay:10.37,2013-10-06 01:34:00,
2013-10-05 21:39:00,48.4,44.7,30.15,SE,134,0.0,0.0,87,0.00,BKN,OVC,0.00,WeatherDisplay:10.37,2013-10-06 01:39:00,
2013-10-05 21:44:00,48.4,44.7,30.16,SE,134,0.0,0.0,87,0.00,BKN,OVC,0.00,WeatherDisplay:10.37,2013-10-06 01:44:00,
2013-10-05 21:49:00,48.4,44.7,30.16,SE,134,0.0,0.0,87,0.00,BKN,OVC,0.00,WeatherDisplay:10.37,2013-10-06 01:49:00,
2013-10-05 21:54:00,48.4,44.7,30.17,SE,134,0.0,0.0,87,0.00,BKN,OVC,0.00,WeatherDisplay:10.37,2013-10-06 01:54:00,
2013-10-05 21:59:00,48.3,44.6,30.17,SE,134,0.0,0.0,87,0.00,BKN,OVC,0.00,WeatherDisplay:10.37,2013-10-06 01:59:00,
2013-10-05 22:04:00,48.0,44.3,30.17,SE,134,0.0,0.0,87,0.00,BKN,OVC,0.00,WeatherDisplay:10.37,2013-10-06 02:04:00,
2013-10-05 22:09:00,47.9,44.5,30.17,SE,134,0.0,0.0,88,0.00,BKN,OVC,0.00,WeatherDisplay:10.37,2013-10-06 02:09:00,
2013-10-05 22:24:00,48.0,44.3,30.17,SE,134,0.0,0.0,87,0.00,OVC,OVC,0.00,WeatherDisplay:10.37,2013-10-06 02:24:00,
2013-10-05 22:29:00,48.0,44.6,30.17,SE,134,0.0,0.0,88,0.00,OVC,OVC,0.00,WeatherDisplay:10.37,2013-10-06 02:29:00,
2013-10-05 22:34:00,48.1,44.7,30.17,SE,134,0.0,0.0,88,0.00,OVC,OVC,0.00,WeatherDisplay:10.37,2013-10-06 02:34:00,
2013-10-05 22:39:00,48.4,44.7,30.17,SE,134,0.0,0.0,87,0.00,OVC,OVC,0.00,WeatherDisplay:10.37,2013-10-06 02:39:00,
2013-10-05 22:44:00,48.8,44.8,30.18,SE,134,0.0,0.0,86,0.00,OVC,OVC,0.00,WeatherDisplay:10.37,2013-10-06 02:44:00,
2013-10-05 22:49:00,49.0,44.7,30.18,SE,134,0.0,0.0,85,0.00,OVC,OVC,0.00,WeatherDisplay:10.37,2013-10-06 02:49:00,
2013-10-05 22:54:00,49.3,44.3,30.18,SE,128,0.0,1.0,83,0.00,OVC,OVC,0.00,WeatherDisplay:10.37,2013-10-06 02:54:00,
2013-10-05 22:59:00,49.7,43.8,30.18,ESE,107,0.0,5.0,80,0.00,OVC,OVC,0.00,WeatherDisplay:10.37,2013-10-06 02:59:00,
2013-10-05 23:04:00,50.2,43.6,30.18,ENE,78,0.0,2.0,78,0.00,OVC,OVC,0.00,WeatherDisplay:10.37,2013-10-06 03:04:00,
2013-10-05 23:09:00,50.7,43.4,30.18,East,89,0.0,7.0,76,0.00,OVC,OVC,0.00,WeatherDisplay:10.37,2013-10-06 03:09:00,
2013-10-05 23:14:00,50.9,42.9,30.18,East,89,0.0,4.0,74,0.00,OVC,OVC,0.00,WeatherDisplay:10.37,2013-10-06 03:14:00,
2013-10-05 23:19:00,50.9,42.6,30.17,East,97,0.0,7.0,73,0.00,OVC,OVC,0.00,WeatherDisplay:10.37,2013-10-06 03:19:00,
2013-10-05 23:24:00,51.0,41.9,30.17,East,93,1.0,7.0,71,0.00,OVC,OVC,0.00,WeatherDisplay:10.37,2013-10-06 03:24:00,
2013-10-05 23:29:00,50.9,41.8,30.18,East,90,0.0,2.0,71,0.00,OVC,OVC,0.00,WeatherDisplay:10.37,2013-10-06 03:29:00,
2013-10-05 23:34:00,50.6,41.5,30.18,East,94,0.0,2.0,71,0.00,OVC,OVC,0.00,WeatherDisplay:10.37,2013-10-06 03:34:00,
2013-10-05 23:39:00,50.4,41.3,30.18,East,95,0.0,2.0,71,0.00,OVC,OVC,0.00,WeatherDisplay:10.37,2013-10-06 03:39:00,
2013-10-05 23:44:00,50.2,41.5,30.18,East,93,0.0,1.0,72,0.00,OVC,OVC,0.00,WeatherDisplay:10.37,2013-10-06 03:44:00,
2013-10-05 23:49:00,49.9,41.6,30.18,East,88,0.0,3.0,73,0.00,OVC,OVC,0.00,WeatherDisplay:10.37,2013-10-06 03:49:00,
2013-10-05 23:54:00,49.9,41.2,30.18,East,89,0.0,1.0,72,0.00,OVC,OVC,0.00,WeatherDisplay:10.37,2013-10-06 03:54:00,
2013-10-05 23:59:00,49.9,41.6,30.18,East,89,0.0,2.0,73,0.00,OVC,OVC,0.00,WeatherDisplay:10.37,2013-10-06 03:59:00,